Voltar ao catálogo

SL-23 R/B

AtivoHEO
NORAD 34112·ROCKET BODY·🇷🇺 Russia

Lançado Feb 26, 2009 de Baikonur Cosmodrome

Loading…

Próximas Passagens (próximas 24 horas)

TLE

AtualizadoSource: Space-Track

Época: Sep 14, 2026, 17:11 UTC

1 34112U 09009B   26257.71625400  .00000004  00000-0  00000-0 0  9990
2 34112  34.5500 245.4583 6929417 203.4505  85.0605  2.20447673141339

Acompanhe SL-23 R/B em tempo real com AllMySat

Download on the App Store